Vertical_Velocity
-0 -1 0 0 0 1 1 -1 -2 -2 -2 -2 -2 -2 -1 -1 2 1 2 0 0 1
1 1 -0 1 1 0 -2 -1 -3 -3 -0 -0 -1 -1 0 0 -0 -2 -0 1 -1 1
0 2 2 0 -1 -1 -1 -2 -2 -2 -2 -1 0 -1 -1 0 2 -2 2 0 -0 1
3 1 0 -0 -1 -2 -1 -1 -1 0 -0 -1 -1 -1 2 1 -0 -3 3 -1 -2 1
-0 1 0 -1 -1 -1 -1 -1 0 0 1 1 -1 -1 1 -0 2 -2 2 1 -1 1
-2 -3 -2 -1 -1 -1 1 2 1 -0 -1 0 -1 2 1 -0 2 -1 1 0 1 1
-2 -2 -1 1 2 1 0 1 -1 -2 -1 -3 0 1 -1 2 2 2 2 2 1 2
2 2 1 2 0 -1 -1 1 2 0 -1 1 0 -1 -0 1 1 -0 0 -1 1 1
-1 -0 0 -1 -2 -1 -0 -0 -2 -3 -2 -2 -2 0 2 2 1 -0 -1 2 2 -0
-2 0 -2 -1 -0 2 -0 -1 -2 -1 1 3 -1 -2 -2 -2 1 -0 -0 -0 -1 1
-0 -0 2 -0 0 -3 0 -2 -2 0 -4 -1 2 3 4 2 1 1 1 -2 -1 -3
-3 -1 -2 -2 -0 -2 -0 -1 1 1 3 -2 -2 -5 1 1 2 6 2 -2 -1 -2
-1 -0 -2 -1 -1 -2 -0 1 -1 4 -4 -2 3 -3 -3 -5 -1 1 -4 3 0 -1
2 -2 -1 2 -3 1 -2 1 0 -4 -1 -2 -6 -1 -2 -3 -5 -5 -1 -0 2 -0
Height
3126 3125 3123 3121 3120 3119 3117 3115 3113 3110 3108 3106 3104 3101 3099 3097 3093 3091 3087 3084 3081 3078
3119 3118 3117 3116 3114 3113 3110 3108 3106 3103 3100 3098 3096 3094 3092 3090 3087 3084 3080 3077 3074 3072
3114 3113 3112 3110 3109 3106 3104 3100 3098 3095 3093 3091 3088 3085 3083 3081 3077 3076 3072 3070 3067 3064
3109 3108 3106 3105 3102 3099 3096 3093 3091 3089 3086 3083 3081 3078 3075 3072 3069 3067 3065 3061 3060 3057
3104 3103 3099 3096 3093 3090 3088 3086 3084 3082 3080 3076 3073 3070 3066 3064 3062 3059 3058 3054 3052 3050
3096 3094 3090 3088 3086 3084 3082 3079 3077 3074 3072 3068 3065 3061 3058 3056 3054 3051 3049 3047 3044 3041
3087 3084 3083 3081 3079 3076 3074 3072 3069 3065 3062 3058 3056 3053 3050 3048 3045 3043 3041 3038 3035 3033
3079 3077 3075 3073 3071 3068 3066 3062 3059 3056 3053 3051 3048 3044 3042 3039 3037 3034 3032 3030 3027 3025
3072 3070 3066 3064 3062 3059 3056 3053 3050 3047 3044 3042 3039 3036 3033 3031 3028 3026 3024 3022 3020 3017
3064 3061 3058 3055 3052 3049 3046 3043 3040 3038 3035 3032 3030 3027 3024 3022 3020 3018 3016 3013 3011 3009
3054 3052 3049 3046 3042 3039 3035 3033 3030 3028 3025 3024 3022 3018 3016 3013 3010 3008 3007 3004 3002 3000
3045 3042 3039 3037 3034 3031 3028 3026 3023 3020 3017 3014 3013 3011 3008 3005 3001 2999 2997 2995 2993 2990
3036 3033 3031 3028 3026 3024 3020 3018 3015 3012 3009 3006 3003 3001 2998 2996 2992 2989 2987 2986 2982 2980
3028 3026 3023 3021 3017 3015 3012 3009 3006 3003 3001 2997 2993 2991 2988 2985 2981 2978 2976 2974 2972 2970